[[{"header":{"parameterUnit":"m.s-1","parameterCategory":1,"la1":30.2991,"la2":30.254,"lo1":-89.0895,"lo2":-89.0444,"dy":0.0017,"dx":0.0017,"nx":28,"ny":28,"refTime":"2025-11-18T09:00:00:Z","depth":0,"parameterNumber":2,"parameterNumberName":"U-component_of_WINDS"},"data":[0,0,0,0,0,0,0,0,0,0,0,0,0,0,0,0,0,0,0,0,0,0,0,0,0,0,0,0,0,0,0,0,0,0,0,0,0,0,0,0,0,0,0,0,0,0,0,0,0,0,0,0,0,0,0,0,0,0,-0.3977,-0.3977,0,-0.3958,-0.3958,-0.3958,-0.3946,-0.3946,-0.3946,-0.3946,-0.3927,-0.3926,-0.3926,0,0,0,0,0,0,0,0,0,0,0,0,0,-0.4004,-0.4003,-0.3977,-0.3977,-0.3977,-0.3958,-0.3958,-0.3958,-0.3946,-0.3946,-0.3946,-0.3946,-0.3927,-0.3926,-0.3926,0,0,0,0,0,0,0,0,0,0,0,0,0,-0.3989,-0.4003,-0.3977,-0.3969,-0.3968,-0.3958,-0.3958,-0.3957,-0.3946,-0.3946,-0.3946,-0.3946,-0.3927,-0.3926,-0.3926,-0.3923,0,0,-0.3924,-0.3923,0,0,0,0,0,0,0,0,-0.399,-0.3988,-0.397,-0.3969,-0.3968,-0.3955,-0.396,-0.3946,-0.3946,-0.3955,-0.3946,-0.3946,-0.3936,-0.3935,-0.3931,-0.3922,-0.3921,-0.3923,-0.3923,-0.3923,-0.3923,0,0,0,0,0,0,0,-0.3991,-0.3989,-0.397,-0.397,-0.3969,-0.3966,-0.3964,-0.3957,-0.3946,-0.3954,-0.3953,-0.3951,-0.3936,-0.3932,-0.3931,-0.3921,-0.3923,-0.3923,-0.3922,-0.3922,-0.3908,-0.3908,0,0,0,0,0,0,-0.3993,-0.399,-0.397,-0.3969,-0.3979,-0.3966,-0.3963,-0.3959,-0.3946,-0.3944,-0.3951,-0.395,-0.3933,-0.3931,-0.393,-0.3926,-0.3923,-0.3922,-0.3922,-0.3908,-0.3908,-0.3908,0,0,0,0,0,0,-0.3994,-0.3992,-0.3971,-0.3979,-0.3976,-0.3965,-0.3961,-0.3959,-0.3955,-0.3944,-0.3942,-0.3949,-0.3933,-0.3931,-0.3925,-0.3925,-0.3922,-0.3921,-0.3908,-0.3908,-0.3908,-0.3917,0,0,0,0,0,0,-0.3995,-0.3992,-0.3991,-0.3979,-0.3976,-0.3966,-0.3961,-0.3958,-0.3954,-0.3953,-0.3942,-0.394,-0.3933,-0.3926,-0.3924,-0.3924,-0.3921,-0.3908,-0.3908,-0.3908,-0.3917,-0.3918,-0.3918,0,0,0,0,0,-0.3996,-0.3994,-0.3991,-0.3988,-0.3974,-0.3966,-0.3964,-0.3956,-0.3954,-0.3953,-0.3945,-0.394,-0.3925,-0.3925,-0.3923,-0.3923,-0.3908,-0.3908,-0.3908,-0.3917,-0.3918,-0.3918,0,0,0,0,0,0,-0.4006,-0.3992,-0.3989,-0.3983,-0.3976,-0.3964,-0.3962,-0.3957,-0.395,-0.395,-0.394,-0.3938,-0.3933,-0.3927,-0.3927,-0.3919,-0.3916,-0.3916,-0.3923,-0.3924,-0.3925,-0.3926,-0.392,0,0,0,0,0,-0.4007,-0.4002,-0.399,-0.3986,-0.3983,-0.3973,-0.3969,-0.3964,-0.3956,-0.3953,-0.3945,-0.3938,-0.3931,-0.3927,-0.3921,-0.3916,-0.3914,-0.3915,-0.3916,-0.3916,-0.3916,-0.3914,-0.3914,-0.3909,-0.3909,-0.3909,0,0,-0.401,-0.4002,-0.3999,-0.3988,-0.3982,-0.3976,-0.3971,-0.3965,-0.3961,-0.3952,-0.3946,-0.394,-0.3931,-0.3926,-0.3923,-0.3921,-0.3917,-0.3916,-0.3917,-0.3916,-0.3914,-0.3914,-0.3915,-0.3909,-0.3909,-0.3909,0,0,-0.4013,-0.4006,-0.4002,-0.3996,-0.3987,-0.3981,-0.398,-0.3969,-0.3965,-0.3958,-0.3951,-0.3947,-0.3936,-0.393,-0.3925,-0.3926,-0.3921,-0.3924,-0.3928,-0.3926,-0.3926,-0.3926,-0.3927,-0.3927,-0.3924,-0.3924,-0.3924,0,-0.4018,-0.4009,-0.4001,-0.3996,-0.3991,-0.3983,-0.3979,-0.3974,-0.3963,-0.396,-0.3958,-0.3944,-0.3938,-0.3931,-0.3931,-0.3928,-0.3927,-0.3926,-0.3927,-0.3927,-0.3927,-0.3927,-0.3928,-0.3925,-0.3925,-0.3925,-0.3925,0,-0.4016,-0.401,-0.4008,-0.3998,-0.3993,-0.3989,-0.398,-0.3976,-0.3971,-0.3965,-0.3959,-0.395,-0.3942,-0.394,-0.3935,-0.3933,-0.3932,-0.3928,-0.3925,-0.3928,-0.3928,-0.3928,-0.3925,-0.3925,-0.3925,-0.3925,0,0,-0.4024,-0.4009,-0.4009,-0.4004,-0.3994,-0.3989,-0.3984,-0.3976,-0.3973,-0.3966,-0.3962,-0.3953,-0.395,-0.3945,-0.394,-0.3937,-0.3939,-0.3934,-0.3934,-0.3935,-0.3936,-0.3939,-0.3939,-0.3936,-0.3936,-0.3936,-0.3937,0,-0.4025,-0.4016,-0.4009,-0.4003,-0.3998,-0.399,-0.3986,-0.3979,-0.3973,-0.3968,-0.3962,-0.3956,-0.3952,-0.3949,-0.3946,-0.3939,-0.3939,-0.3939,-0.3932,-0.3932,-0.3935,-0.3939,-0.3942,-0.3944,-0.3937,-0.3937,-0.3937,0,-0.4025,-0.4019,-0.4012,-0.4002,-0.4,-0.3996,-0.3989,-0.3984,-0.3976,-0.3972,-0.3967,-0.3961,-0.3956,-0.3953,-0.3946,-0.3946,-0.3943,-0.3939,-0.3939,-0.3938,-0.3935,-0.3939,-0.3944,-0.3944,-0.3937,-0.3937,-0.3937,0,-0.4032,-0.4021,-0.4016,-0.4013,-0.4001,-0.3999,-0.3994,-0.3986,-0.3982,-0.3975,-0.3972,-0.3965,-0.3961,-0.3956,-0.3948,-0.3947,-0.3942,-0.3939,-0.3939,-0.3939,-0.3938,-0.3938,-0.3943,-0.3936,-0.3936,-0.3936,-0.3936,0,-0.4034,-0.4031,-0.4019,-0.4016,-0.4012,-0.4003,-0.3999,-0.3994,-0.3987,-0.3983,-0.3975,-0.3972,-0.3962,-0.3957,-0.3951,-0.3946,-0.3944,-0.3941,-0.394,-0.3942,-0.3942,-0.394,-0.3939,-0.3936,-0.3936,-0.3936,-0.3936,0,-0.4041,-0.4033,-0.4027,-0.4017,-0.4014,-0.4011,-0.4002,-0.3999,-0.3993,-0.3988,-0.3986,-0.3977,-0.3971,-0.3963,-0.3954,-0.395,-0.3946,-0.3943,-0.3949,-0.3948,-0.3948,-0.3949,-0.3952,-0.3952,-0.3945,-0.3945,-0.3945,0,-0.4043,-0.404,-0.4029,-0.4026,-0.4021,-0.4016,-0.4012,-0.4004,-0.3999,-0.3991,-0.3988,-0.3982,-0.3976,-0.3966,-0.3959,-0.3952,-0.395,-0.3951,-0.3949,-0.3951,-0.395,-0.395,-0.395,-0.3952,-0.3952,-0.3952,-0.3952,0,-0.4047,-0.4044,-0.4038,-0.4031,-0.4026,-0.402,-0.4014,-0.4012,-0.4002,-0.3998,-0.3992,-0.3987,-0.3978,-0.3972,-0.3964,-0.3959,-0.3954,-0.3953,-0.3953,-0.3955,-0.3958,-0.3957,-0.395,-0.3953,-0.3953,-0.3953,-0.3953,-0.3953,-0.4052,-0.4049,-0.4041,-0.4035,-0.403,-0.4024,-0.402,-0.4014,-0.4009,-0.4001,-0.3996,-0.399,-0.3983,-0.3972,-0.3967,-0.3963,-0.3961,-0.396,-0.396,-0.396,-0.3961,-0.3959,-0.3961,-0.3961,-0.3961,-0.3961,-0.3961,0,-0.4056,-0.4051,-0.4045,-0.4037,-0.4032,-0.4028,-0.4021,-0.4017,-0.4012,-0.4005,-0.4,-0.3993,-0.3986,-0.3979,-0.3972,-0.397,-0.3967,-0.3968,-0.3968,-0.3967,-0.3963,-0.3964,-0.397,-0.397,-0.397,-0.397,-0.397,-0.397,-0.4057,-0.4052,-0.4048,-0.404,-0.4035,-0.4029,-0.4025,-0.402,-0.4015,-0.4007,-0.4002,-0.3997,-0.399,-0.3983,-0.3977,-0.3975,-0.3973,-0.3975,-0.3972,-0.3968,-0.3967,-0.3967,-0.3967,-0.3974,-0.3974,-0.3976,-0.3976,-0.3976]},{"header":{"parameterUnit":"m.s-1","parameterCategory":1,"la1":30.2991,"la2":30.254,"lo1":-89.0895,"lo2":-89.0444,"dy":0.0017,"dx":0.0017,"nx":28,"ny":28,"refTime":"2025-11-18T09:00:00:Z","depth":0,"parameterNumber":3,"parameterNumberName":"V-component_of_WINDS"},"data":[0,0,0,0,0,0,0,0,0,0,0,0,0,0,0,0,0,0,0,0,0,0,0,0,0,0,0,0,0,0,0,0,0,0,0,0,0,0,0,0,0,0,0,0,0,0,0,0,0,0,0,0,0,0,0,0,0,0,-0.153,-0.1531,0,-0.1584,-0.1585,-0.1585,-0.1596,-0.1596,-0.1595,-0.1595,-0.1652,-0.1654,-0.1656,0,0,0,0,0,0,0,0,0,0,0,0,0,-0.1439,-0.1441,-0.153,-0.1531,-0.1532,-0.1584,-0.1585,-0.1586,-0.1596,-0.1596,-0.1595,-0.1595,-0.1651,-0.1653,-0.1656,0,0,0,0,0,0,0,0,0,0,0,0,0,-0.1484,-0.1441,-0.153,-0.1543,-0.1545,-0.1584,-0.1585,-0.1586,-0.1596,-0.1596,-0.1595,-0.1594,-0.165,-0.1653,-0.1656,-0.1686,0,0,-0.1665,-0.1666,0,0,0,0,0,0,0,0,-0.1482,-0.1488,-0.1541,-0.1542,-0.1544,-0.1583,-0.1573,-0.162,-0.1596,-0.1577,-0.1595,-0.1594,-0.1629,-0.1634,-0.1646,-0.1689,-0.1691,-0.1665,-0.1667,-0.1668,-0.1669,0,0,0,0,0,0,0,-0.1479,-0.1485,-0.1552,-0.1542,-0.1544,-0.1547,-0.1553,-0.1582,-0.1606,-0.1579,-0.1579,-0.1586,-0.163,-0.1643,-0.1647,-0.1692,-0.1665,-0.1668,-0.1669,-0.167,-0.1764,-0.1764,0,0,0,0,0,0,-0.1473,-0.1483,-0.155,-0.1553,-0.1511,-0.1549,-0.1556,-0.1571,-0.1606,-0.161,-0.1586,-0.1586,-0.1638,-0.1644,-0.1649,-0.1687,-0.1668,-0.1671,-0.1672,-0.1763,-0.1764,-0.1765,0,0,0,0,0,0,-0.1471,-0.1479,-0.1548,-0.1518,-0.1527,-0.1551,-0.1569,-0.1573,-0.1585,-0.1611,-0.1616,-0.1594,-0.1638,-0.1645,-0.1677,-0.1689,-0.1672,-0.1675,-0.1762,-0.1763,-0.1764,-0.1763,0,0,0,0,0,0,-0.1468,-0.1478,-0.1489,-0.1518,-0.1529,-0.1574,-0.157,-0.1574,-0.159,-0.159,-0.162,-0.1625,-0.1638,-0.1673,-0.168,-0.1693,-0.1677,-0.1761,-0.1763,-0.1764,-0.1762,-0.1764,-0.1766,0,0,0,0,0,-0.1465,-0.1487,-0.149,-0.1498,-0.1543,-0.1575,-0.1581,-0.1595,-0.159,-0.1602,-0.1619,-0.1624,-0.1686,-0.1676,-0.1684,-0.1698,-0.176,-0.1762,-0.1764,-0.1761,-0.1764,-0.1766,0,0,0,0,0,0,-0.146,-0.1491,-0.1495,-0.1527,-0.1548,-0.1577,-0.1592,-0.1597,-0.1621,-0.162,-0.1637,-0.1644,-0.1675,-0.169,-0.1677,-0.1729,-0.1723,-0.1727,-0.1719,-0.1721,-0.1723,-0.1719,-0.1679,0,0,0,0,0,-0.1462,-0.1484,-0.1511,-0.1537,-0.1547,-0.1568,-0.1582,-0.1591,-0.1614,-0.1623,-0.1643,-0.1666,-0.169,-0.1706,-0.1731,-0.1764,-0.1771,-0.1778,-0.178,-0.1781,-0.1784,-0.1803,-0.1806,-0.177,-0.177,-0.177,0,0,-0.1467,-0.1488,-0.1501,-0.1536,-0.1554,-0.1577,-0.1575,-0.16,-0.1618,-0.1627,-0.1659,-0.1674,-0.17,-0.1733,-0.1748,-0.1746,-0.1795,-0.1783,-0.1784,-0.1786,-0.1805,-0.1808,-0.1811,-0.1771,-0.1771,-0.1771,0,0,-0.1489,-0.1507,-0.153,-0.1548,-0.1574,-0.1587,-0.1593,-0.1621,-0.1631,-0.1663,-0.167,-0.1692,-0.1734,-0.1753,-0.1768,-0.1797,-0.1802,-0.1804,-0.1814,-0.1832,-0.1835,-0.1838,-0.1848,-0.1852,-0.1807,-0.1807,-0.1807,0,-0.1493,-0.1528,-0.1542,-0.1566,-0.1582,-0.1591,-0.1615,-0.1632,-0.1665,-0.1676,-0.1673,-0.1726,-0.1744,-0.1782,-0.1789,-0.1801,-0.1808,-0.1801,-0.1833,-0.1836,-0.1839,-0.1849,-0.1853,-0.1807,-0.1807,-0.1807,-0.1807,0,-0.1531,-0.1556,-0.1572,-0.1603,-0.162,-0.1644,-0.1662,-0.1679,-0.1686,-0.17,-0.1732,-0.1755,-0.1784,-0.1793,-0.1801,-0.1832,-0.183,-0.183,-0.1824,-0.1842,-0.1852,-0.1856,-0.1807,-0.1807,-0.1807,-0.1807,0,0,-0.1552,-0.159,-0.1596,-0.161,-0.164,-0.1659,-0.1684,-0.1712,-0.1725,-0.1748,-0.177,-0.1805,-0.1805,-0.1822,-0.1832,-0.1848,-0.187,-0.1847,-0.1847,-0.185,-0.1906,-0.1906,-0.1911,-0.1874,-0.1874,-0.1875,-0.1904,0,-0.1578,-0.1622,-0.1635,-0.1672,-0.1695,-0.1703,-0.1725,-0.1746,-0.176,-0.1782,-0.1797,-0.1822,-0.182,-0.1831,-0.1847,-0.1864,-0.1882,-0.1862,-0.1895,-0.1896,-0.1888,-0.1916,-0.1916,-0.1942,-0.1908,-0.1909,-0.1909,0,-0.1614,-0.1636,-0.1675,-0.1702,-0.1712,-0.1731,-0.1758,-0.1779,-0.1803,-0.1812,-0.183,-0.1839,-0.1866,-0.1859,-0.1896,-0.1883,-0.1897,-0.1907,-0.1909,-0.1913,-0.1904,-0.1921,-0.1951,-0.1955,-0.1916,-0.1915,-0.1915,0,-0.1625,-0.1665,-0.1694,-0.1706,-0.1738,-0.1751,-0.1765,-0.1789,-0.1804,-0.1828,-0.1839,-0.1865,-0.188,-0.1901,-0.1916,-0.1909,-0.1953,-0.1947,-0.1962,-0.1961,-0.1971,-0.197,-0.2004,-0.1979,-0.1979,-0.1979,-0.1979,0,-0.1653,-0.1676,-0.1699,-0.1717,-0.1744,-0.1759,-0.1786,-0.18,-0.1821,-0.1842,-0.1852,-0.1872,-0.1891,-0.1914,-0.1926,-0.1956,-0.1962,-0.1971,-0.1974,-0.197,-0.1969,-0.198,-0.1979,-0.198,-0.198,-0.198,-0.1979,0,-0.167,-0.1686,-0.1718,-0.1746,-0.1753,-0.1772,-0.1796,-0.1814,-0.1827,-0.1854,-0.1861,-0.1884,-0.1911,-0.1928,-0.1963,-0.1972,-0.2004,-0.2007,-0.1996,-0.1997,-0.2011,-0.201,-0.2054,-0.2061,-0.2031,-0.2031,-0.2031,0,-0.1687,-0.1705,-0.1734,-0.1749,-0.1763,-0.1786,-0.1802,-0.1818,-0.1835,-0.1863,-0.1878,-0.1905,-0.1928,-0.1971,-0.1991,-0.2018,-0.2021,-0.2035,-0.2025,-0.2021,-0.2022,-0.2021,-0.2023,-0.2036,-0.2037,-0.2037,-0.2037,0,-0.1715,-0.1722,-0.1744,-0.177,-0.1789,-0.181,-0.1831,-0.1842,-0.1862,-0.188,-0.1907,-0.1925,-0.196,-0.1988,-0.2016,-0.2032,-0.2038,-0.204,-0.2045,-0.2041,-0.2034,-0.2039,-0.2,-0.2039,-0.2039,-0.2039,-0.2038,-0.2038,-0.1733,-0.1749,-0.1772,-0.1797,-0.1815,-0.1834,-0.1852,-0.1868,-0.1891,-0.1921,-0.1929,-0.1958,-0.1982,-0.202,-0.2036,-0.206,-0.2058,-0.2065,-0.2067,-0.2069,-0.2069,-0.203,-0.2065,-0.2065,-0.2065,-0.2065,-0.2065,0,-0.1761,-0.1777,-0.1799,-0.1828,-0.1848,-0.1851,-0.1875,-0.1891,-0.1916,-0.1938,-0.196,-0.1992,-0.2018,-0.204,-0.2068,-0.2082,-0.2086,-0.2089,-0.2088,-0.2092,-0.2069,-0.2062,-0.2086,-0.2086,-0.2086,-0.2086,-0.2086,-0.2086,-0.1779,-0.1807,-0.1817,-0.1855,-0.187,-0.1898,-0.1911,-0.1929,-0.1947,-0.1982,-0.2003,-0.2017,-0.2039,-0.2068,-0.2093,-0.2099,-0.2109,-0.2112,-0.2118,-0.2096,-0.2094,-0.2091,-0.2085,-0.2114,-0.2114,-0.214,-0.214,-0.214]}]]